NAVSTAR 55 (USA 178) (28361 NORAD) Tracking and Keplerian Element Data

This shows tracking and keplerian element data for the satellite.

Feedback or suggestion? Click here.




ElementValue
Catalog28361
NameNAVSTAR 55 (USA 178)
Epoch Orbit15104
Epoch Day34.57656086
Epoch Year2025
RAAN106.8876
Inclination54.5411
Eccentricity0.0153934
Argument of Perigee287.3018
Mean Anonmoly82.0486
Mean Motion2.00558117
Decay Rate-1.2E-07
L11 28361U 04023A 25034.57656086 -.00000012 00000+0 00000+0 0 9998
L22 28361 54.5411 106.8876 0153934 287.3018 82.0486 2.00558117151040



Live tracking and technical data element details for NAVSTAR 55 (USA 178) (NORAD 28361). NAVSTAR 55 (USA 178) can be tracked NOW for your location showing map with azimuth and elevation plus other details from your city location.







IsCatalogInMostPopularTable: catalog: 28361, numindb: 333
Update: records affected: 1



GetName: 28361 NAVSTAR 55 (USA 178)

Hit Count: updated at: Fri, 16 May 2025 10:15:26 GMT